DateTimeUTC,F1_A11,F1_S11,BsB_S11,BsG_S11,BsR_S11,BbsB_S11,BbsG_S11,BbsR_S11,BaB_A11,BaG_A11,BaR_A11,Tu_S11,T_S11,Uu_S11,U_S11,P_S11,T1_A11
2021-08-27T18:00:00Z,00000200,20000000,,,,,,,0000.02,0000.21,0000.13,19.4,26.0,07.2,04.8,0670.0,31.1
2021-08-27T18:01:00Z,00000200,20000000,,,,,,,-000.39,-000.17,-000.42,19.4,26.0,07.2,04.8,0670.0,31.1
2021-08-27T18:02:00Z,00000200,20000000,,,,,,,-000.12,-000.48,-000.13,19.4,26.0,07.2,04.8,0670.0,31.1
2021-08-27T18:03:00Z,00000200,60000000,,,,,,,0000.20,0000.46,0000.34,19.4,26.0,07.2,04.8,0670.0,31.1
2021-08-27T18:04:00Z,00000200,40000000,0004.05,0003.02,0001.84,0001.15,0000.30,0000.26,0000.83,0000.61,0000.52,19.4,25.8,06.9,04.7,0670.9,31.1
2021-08-27T18:05:00Z,00000200,00000000,0004.28,0002.90,0001.86,0000.60,0000.23,0000.31,0000.46,0000.65,0000.34,19.5,25.8,06.8,04.7,0671.0,31.1
2021-08-27T18:06:00Z,00000200,00000000,0004.41,0002.93,0001.94,0000.67,0000.56,0000.09,0000.66,0000.48,0000.61,19.5,25.8,06.8,04.7,0671.0,31.1
2021-08-27T18:07:00Z,00000200,00000000,0004.37,0002.88,0002.03,0000.23,0000.52,0000.18,0000.50,0000.66,0000.43,19.5,25.8,06.9,04.7,0671.0,31.1
2021-08-27T18:08:00Z,00000200,00000000,0003.56,0002.95,0002.34,0000.55,0000.33,0000.26,0001.08,0000.41,0000.78,19.5,25.8,06.9,04.7,0671.0,31.1
2021-08-27T18:09:00Z,00000200,00000000,0003.56,0003.13,0001.85,0000.75,0000.44,0000.19,0000.54,0001.01,0000.39,19.5,25.8,06.8,04.7,0671.0,31.1
2021-08-27T18:10:00Z,00000200,00000000,0003.83,0003.23,0001.86,0000.39,0000.48,0000.41,0000.43,0000.67,0000.60,19.5,25.8,06.8,04.7,0671.0,31.1
2021-08-27T18:11:00Z,00000200,00000000,0003.61,0002.70,0001.98,0000.01,0000.59,0000.20,0000.80,0000.21,0000.17,19.5,25.8,06.9,04.7,0671.0,31.1
2021-08-27T18:12:00Z,00000200,00000000,0003.24,0002.67,0001.97,0000.70,0000.53,0000.30,0000.56,0000.95,0000.48,19.5,25.8,06.8,04.6,0671.0,31.1
2021-08-27T18:13:00Z,00000200,00000000,0003.27,0002.88,0001.66,-000.20,0000.15,0000.25,0000.77,0000.34,0000.82,19.5,25.7,06.9,04.7,0671.0,31.1
2021-08-27T18:14:00Z,00000200,00000000,0003.65,0002.97,0001.95,0000.61,0000.59,0000.29,0000.55,0000.41,0000.20,19.5,25.7,06.8,04.6,0671.0,31.1
2021-08-27T18:15:00Z,00000200,00000000,0003.29,0002.54,0001.82,-000.25,0000.23,0000.64,0000.35,0001.01,0000.45,19.5,25.7,06.8,04.6,0671.0,31.1
2021-08-27T18:16:00Z,00000200,00000000,0004.17,0003.11,0001.70,0000.26,0000.56,0000.47,0000.74,0000.29,0000.88,19.5,25.7,06.9,04.7,0671.0,31.1
2021-08-27T18:17:00Z,00000200,00000000,0003.49,0002.77,0002.09,0000.00,0000.56,0000.39,0001.10,0000.54,0000.70,19.5,25.7,06.9,04.7,0671.0,31.1
2021-08-27T18:18:00Z,00000200,00000000,0003.70,0002.85,0002.15,0000.42,0000.25,0000.59,0000.69,0000.93,0000.09,19.5,25.7,06.9,04.7,0671.0,31.1
2021-08-27T18:19:00Z,00000200,00000000,0003.92,0002.71,0001.59,0000.55,0000.25,0000.26,0000.28,0000.81,0000.78,19.5,25.7,06.9,04.7,0671.0,31.1
2021-08-27T18:20:00Z,00000200,00000000,0003.57,0002.91,0001.80,0000.60,0000.26,0000.21,0001.12,0000.64,0000.46,19.5,25.7,06.9,04.8,0671.0,31.1
2021-08-27T18:21:00Z,00000200,00000000,0003.82,0003.00,0001.77,0000.79,0000.30,0000.19,0000.14,0000.21,0000.33,19.5,25.7,06.9,04.7,0670.9,31.1
2021-08-27T18:22:00Z,00000200,00000000,0003.97,0003.10,0001.37,0000.82,0000.58,-000.00,0001.04,0000.89,0000.79,19.5,25.7,06.9,04.7,0670.9,31.1
2021-08-27T18:23:00Z,00000200,00000000,0004.62,0002.86,0002.01,0000.24,0000.49,0000.29,0000.42,0000.36,0000.44,19.5,25.7,06.9,04.7,0671.0,31.1
2021-08-27T18:24:00Z,00000200,00000000,0003.45,0003.04,0002.25,0000.86,0000.54,0000.43,0000.50,0000.69,0000.53,19.5,25.7,07.0,04.8,0671.0,31.1
2021-08-27T18:25:00Z,00000200,00000000,0003.16,0002.72,0001.82,0000.10,0000.26,0000.12,0000.87,0000.75,0000.24,19.5,25.7,06.9,04.7,0671.0,31.1
2021-08-27T18:26:00Z,00000200,00000000,0003.85,0002.69,0001.93,0001.40,0000.50,-000.12,0000.71,0000.58,0001.03,19.5,25.7,06.9,04.7,0671.0,31.1
2021-08-27T18:27:00Z,00000200,00000000,0002.71,0002.75,0001.84,0000.19,0000.31,0000.24,0000.58,0000.80,0000.04,19.5,25.7,07.0,04.8,0671.1,31.1
2021-08-27T18:28:00Z,00000200,00000000,0003.84,0002.57,0002.09,0000.10,0000.39,0000.63,0000.58,0000.66,0000.70,19.5,25.7,07.0,04.8,0671.0,31.1
2021-08-27T18:29:00Z,00000200,00000000,0004.05,0003.04,0001.82,0000.72,0000.62,0000.34,0000.86,0000.26,0000.51,19.4,25.7,07.1,04.8,0671.1,31.1
2021-08-27T18:30:00Z,00000200,00000000,0003.77,0003.03,0002.22,0000.39,0000.16,0000.56,0000.80,0000.73,0000.86,19.4,25.7,07.0,04.8,0671.1,31.1
2021-08-27T18:31:00Z,00000200,00000000,0003.21,0002.80,0001.33,0000.27,0000.41,0000.27,0000.36,0000.45,-000.17,19.4,25.7,07.1,04.8,0671.0,31.1
2021-08-27T18:32:00Z,00000200,00000000,0003.50,0003.06,0001.82,0000.36,0000.31,0000.27,0000.79,0000.89,0000.57,19.5,25.7,07.0,04.8,0671.0,31.1
2021-08-27T18:33:00Z,00000200,00000000,0003.63,0002.58,0002.06,0001.02,0000.66,-000.08,0000.54,0000.61,0000.51,19.5,25.7,07.1,04.9,0671.0,31.1
2021-08-27T18:34:00Z,00000200,00000000,0003.48,0002.62,0001.85,0000.32,0000.10,0000.39,0000.73,0000.69,0000.89,19.4,25.7,07.1,04.9,0671.0,31.1
2021-08-27T18:35:00Z,00000200,00000000,0004.44,0003.17,0001.93,0000.14,0000.35,0000.36,0000.81,0000.61,0000.37,19.4,25.7,07.2,04.9,0671.0,31.1
2021-08-27T18:36:00Z,00000200,00000000,0003.50,0003.06,0001.70,0000.22,0000.62,0000.30,0000.77,0000.81,0000.68,19.4,25.7,07.2,04.9,0671.0,31.1
2021-08-27T18:37:00Z,00000200,00000000,0004.57,0002.96,0001.99,0000.83,0000.16,0000.28,0000.25,-000.01,0000.28,19.4,25.7,07.3,05.0,0670.9,31.1
2021-08-27T18:38:00Z,00000200,00000000,0003.81,0002.93,0001.56,0000.76,0000.48,-000.06,0000.82,0001.10,0000.53,19.4,25.7,07.1,04.9,0670.9,31.0
2021-08-27T18:39:00Z,00000200,00000000,0003.86,0002.81,0002.14,0000.26,0000.40,0000.13,0001.27,0000.58,0000.57,19.4,25.7,07.3,05.0,0671.0,31.0
2021-08-27T18:40:00Z,00000200,00000000,0003.22,0002.75,0001.66,0000.69,0000.40,0000.41,0000.59,0000.69,0000.56,19.4,25.7,07.4,05.0,0671.0,31.1
2021-08-27T18:41:00Z,00000200,00000000,0003.56,0002.68,0002.00,0000.20,0000.10,0000.16,0000.50,0000.79,0000.59,19.4,25.7,07.4,05.0,0671.0,31.0
2021-08-27T18:42:00Z,00000200,00000000,0003.14,0002.84,0001.81,-000.04,0000.14,0000.31,0000.91,0000.22,0000.22,19.4,25.7,07.4,05.1,0671.0,31.1
2021-08-27T18:43:00Z,00000200,00000000,0002.88,0002.86,0001.69,-000.71,0000.28,0000.21,0000.33,0000.84,0001.12,19.4,25.7,07.4,05.0,0671.1,31.1
2021-08-27T18:44:00Z,00000200,00000000,0003.76,0003.09,0001.36,-000.02,0000.31,0000.10,0000.81,0000.60,0000.12,19.4,25.6,07.5,05.1,0671.1,31.1
2021-08-27T18:45:00Z,00000200,00000000,0003.74,0003.05,0001.85,0000.34,0000.17,0000.23,0000.91,0001.03,0000.91,19.4,25.6,07.3,05.0,0671.1,31.1
2021-08-27T18:46:00Z,00000200,00000000,0002.85,0002.76,0001.62,0000.59,0000.12,-000.03,0000.74,0000.98,0000.85,19.4,25.7,07.4,05.1,0671.0,31.1
2021-08-27T18:47:00Z,00000200,00000000,0002.97,0002.68,0001.66,0000.46,0000.40,0000.33,0000.71,0000.53,0000.52,19.5,25.7,07.5,05.1,0671.1,31.1
2021-08-27T18:48:00Z,00000200,00000000,0003.56,0002.58,0002.18,0000.93,0000.28,0000.25,0000.57,0000.49,0000.42,19.5,25.7,07.4,05.1,0671.1,31.1
2021-08-27T18:49:00Z,00000200,00000000,0003.25,0002.79,0001.90,0000.36,0000.47,0000.37,0000.78,0000.41,0000.54,19.5,25.7,07.5,05.1,0671.1,31.1
2021-08-27T18:50:00Z,00000200,00000000,0003.65,0003.00,0001.77,0000.56,0000.63,0000.17,0000.70,0000.90,0000.63,19.5,25.7,07.5,05.1,0671.1,31.0
2021-08-27T18:51:00Z,00000200,00000000,0003.79,0002.99,0001.99,0000.49,0000.34,0000.41,0000.48,0000.52,-000.09,19.5,25.7,07.5,05.2,0671.1,31.1
2021-08-27T18:52:00Z,00000200,00000000,0004.04,0002.84,0001.71,0000.49,0000.42,0000.43,0000.80,0000.41,0000.82,19.5,25.7,07.4,05.1,0671.1,31.1
2021-08-27T18:53:00Z,00000200,00000000,0003.90,0003.12,0001.67,0000.52,0000.42,0000.53,0000.57,0000.53,0000.30,19.5,25.7,07.5,05.1,0671.1,31.1
2021-08-27T18:54:00Z,00000200,00000000,0003.72,0002.65,0001.71,0000.36,0000.07,0000.30,0000.32,0000.65,0000.53,19.5,25.7,07.4,05.1,0671.1,31.1
2021-08-27T18:55:00Z,00000200,00000000,0004.12,0002.74,0001.60,0000.63,0000.23,0000.13,0000.90,0001.00,0000.58,19.4,25.7,07.4,05.1,0671.0,31.1
2021-08-27T18:56:00Z,00000200,00000000,0003.96,0002.76,0001.51,0001.11,0000.29,0000.11,0000.82,0000.63,0000.81,19.4,25.7,07.3,05.0,0671.0,31.0
2021-08-27T18:57:00Z,00000200,40000000,,,,,,,0000.01,0000.02,-000.03,19.5,25.7,07.3,05.0,0671.1,31.1
2021-08-27T18:58:00Z,00000200,60000000,,,,,,,-000.16,-000.10,0000.04,19.3,25.8,07.5,05.0,0670.1,31.1
2021-08-27T18:59:00Z,00000200,20000000,,,,,,,-000.11,-000.29,-000.29,19.3,25.9,07.5,05.0,0670.0,31.1
